Wind_Speed
39 39 40 42 44 45 47 48 49 51 52 53 54 54 55 57 60 62 64 65 64 63 61 58 55 54 52 51 50 48 46 45 43 41 38 35 32 29 26 24 23 22 22
40 41 42 44 46 48 50 51 53 54 55 57 59 60 60 60 62 63 65 67 67 68 66 64 61 58 57 55 53 51 49 48 46 44 41 38 35 32 29 26 24 23 23
41 43 45 47 49 52 54 55 56 57 58 59 60 61 62 63 64 66 67 68 69 70 70 69 67 64 60 59 57 54 52 51 49 47 44 40 37 34 31 29 26 25 24
44 46 48 50 52 54 56 57 57 57 57 57 58 59 61 63 64 66 69 70 71 72 72 72 71 70 67 62 60 58 55 53 51 49 46 43 40 37 34 31 28 26 25
46 49 50 52 53 56 58 59 59 57 56 55 55 56 58 60 63 65 66 70 72 73 74 74 75 74 73 69 64 61 60 57 54 51 49 46 42 39 36 33 30 28 26
48 50 52 54 55 57 57 58 56 54 52 51 51 52 54 56 58 61 63 65 69 72 74 75 76 76 75 74 70 65 62 60 56 53 50 48 45 42 38 35 32 29 27
50 52 54 55 56 56 55 53 51 48 46 45 46 47 49 51 54 56 59 60 61 65 69 73 76 77 76 75 75 71 67 63 61 58 55 50 47 44 41 38 34 31 28
51 52 54 55 55 54 52 49 47 44 41 40 40 41 43 45 49 51 53 55 55 57 61 65 70 74 74 75 75 75 72 68 62 58 56 53 50 47 44 40 36 32 30
51 53 53 54 53 52 49 46 42 38 35 34 33 33 35 38 42 45 47 48 49 50 52 55 60 66 70 72 73 73 72 70 67 61 56 54 53 50 46 42 37 34 30
51 52 53 52 51 50 47 42 38 34 30 26 25 25 27 31 35 39 41 42 43 44 45 46 51 56 60 64 68 70 70 69 67 64 59 56 56 53 48 43 40 36 32
51 52 52 51 50 48 45 40 35 31 26 21 19 18 20 25 30 33 37 37 38 40 40 41 42 46 51 56 60 64 66 67 66 64 62 58 57 55 50 44 40 37 33
50 50 50 49 48 46 42 38 33 28 23 17 13 12 14 19 23 27 31 34 35 35 36 36 37 37 41 47 52 56 59 63 64 64 62 59 57 54 51 46 41 37 34
49 49 49 48 47 44 40 35 31 26 19 14 9 6 9 13 17 23 27 30 31 32 33 33 33 33 35 39 43 48 52 57 58 59 59 56 55 52 50 46 43 39 35
48 47 47 46 45 42 38 34 30 24 17 12 6 2 6 10 14 18 23 26 27 28 28 29 30 31 32 34 37 41 45 50 52 53 55 55 52 50 50 47 43 40 36
46 46 45 44 43 39 35 31 28 23 18 12 6 1 6 9 13 16 19 22 24 25 25 26 28 29 30 31 32 35 40 44 49 50 51 52 51 48 46 46 43 41 38
44 44 43 42 41 38 34 30 26 22 18 12 7 2 5 8 12 15 17 19 21 22 23 25 26 27 28 30 31 32 36 41 45 47 48 49 48 47 46 45 44 42 39
42 42 41 40 39 37 34 29 24 21 18 13 7 2 4 7 10 13 15 17 18 19 22 24 25 26 27 28 30 32 34 39 44 48 48 47 48 47 45 44 43 41 39
40 40 40 39 38 35 32 29 24 20 17 13 8 3 2 5 8 10 13 15 17 19 20 22 24 26 27 28 31 32 34 38 43 48 48 49 49 48 45 43 42 40 38
37 38 38 38 36 34 31 27 23 20 17 13 10 5 2 4 7 9 10 12 15 17 19 20 22 25 27 29 31 33 35 38 43 48 48 49 48 48 46 43 41 40 38
35 36 36 35 35 33 30 27 23 20 17 13 10 7 4 4 5 7 9 11 14 16 17 19 21 23 25 27 30 33 35 39 43 47 48 47 46 45 44 43 41 39 38
33 34 34 33 33 32 29 26 23 19 16 12 10 8 6 5 5 7 8 10 12 14 16 16 17 20 22 25 29 34 38 41 44 47 46 45 44 44 42 41 40 38 36
31 32 32 31 31 30 28 25 22 19 16 13 10 8 7 6 6 6 7 9 10 12 13 14 15 17 20 24 30 37 41 43 46 47 45 45 44 44 42 40 38 36 34
29 30 30 30 29 28 27 25 22 19 17 14 11 9 8 7 7 7 7 8 9 9 10 12 13 16 19 25 32 37 41 44 46 46 45 44 42 41 40 38 36 34 33
26 27 28 28 28 27 26 25 22 19 18 15 13 11 10 9 8 7 7 7 8 9 10 12 15 18 21 27 33 37 41 43 44 43 41 40 38 37 36 35 33 32 31
24 24 25 26 26 25 25 24 22 19 18 17 15 14 13 12 10 9 9 9 9 11 15 17 19 21 24 29 33 35 39 40 39 37 36 35 33 32 33 32 30 29 29
21 21 22 23 23 23 23 23 21 20 18 17 15 15 14 13 12 12 13 14 15 17 19 21 23 25 28 31 32 34 36 36 34 33 32 31 30 29 29 28 27 27 26
Wind_Direction
305 303 300 297 295 292 289 285 281 277 273 269 265 261 257 253 250 247 245 243 242 241 240 239 237 234 233 233 232 232 232 232 234 232 231 232 235 238 243 250 257 262 266
307 306 304 302 300 297 293 290 286 281 276 271 267 262 258 253 250 247 244 243 241 239 238 238 237 235 233 232 232 231 231 232 233 234 233 232 234 236 241 246 254 261 265
310 309 307 306 304 301 298 294 290 284 279 274 268 263 258 253 250 246 243 242 240 239 237 236 236 235 234 233 232 231 231 231 232 233 234 233 233 235 239 244 252 258 262
314 314 312 310 308 305 302 298 293 288 282 276 269 263 257 253 249 245 242 240 240 238 237 236 235 234 234 233 232 231 230 230 231 232 233 233 233 234 237 242 248 254 258
318 318 316 315 312 309 306 301 296 291 285 277 270 263 258 253 248 245 243 240 239 238 236 236 235 234 233 233 232 230 230 229 229 230 231 232 232 232 235 238 244 250 254
322 321 320 318 316 313 310 306 300 294 286 278 271 265 258 252 248 244 242 241 239 237 236 235 235 235 233 233 232 230 229 228 228 228 229 229 230 230 232 235 239 245 250
325 324 323 322 320 316 313 310 304 297 289 280 273 265 257 251 246 243 240 239 238 237 236 236 235 234 233 233 233 232 230 229 229 227 226 226 227 227 229 231 234 239 245
328 328 327 326 324 321 319 315 309 302 293 284 275 266 257 249 243 240 238 237 235 235 235 235 234 234 233 233 233 232 232 230 228 228 225 224 225 225 225 227 231 235 241
332 331 330 330 328 327 324 321 316 309 299 288 277 265 254 245 240 235 233 232 231 231 232 232 232 232 233 232 232 232 232 232 231 230 224 223 224 224 223 224 227 231 235
335 335 334 334 333 332 330 327 323 318 308 295 280 266 251 240 235 230 227 226 225 224 226 227 229 229 230 231 231 231 231 231 231 230 229 226 223 222 221 222 224 227 231
338 339 339 338 338 337 336 333 331 326 319 305 286 266 246 235 230 225 221 219 217 217 219 220 222 225 226 227 228 229 230 230 230 231 229 228 225 222 221 221 221 224 228
341 342 343 342 342 342 341 340 338 334 328 318 297 265 240 228 224 219 215 210 210 212 214 215 216 218 221 222 223 225 226 228 229 230 229 227 226 223 221 221 219 221 225
344 345 346 347 346 346 346 346 345 343 339 332 317 264 223 216 214 210 205 203 203 205 208 211 212 213 214 215 217 219 221 223 225 226 226 225 222 222 219 219 218 218 222
346 348 349 350 350 351 352 352 353 353 351 346 332 253 205 202 199 197 197 198 199 201 204 207 209 210 209 210 213 215 217 219 220 221 221 220 219 218 218 216 217 217 219
348 350 352 353 354 355 356 356 358 0 2 1 1 207 191 190 191 191 193 196 199 203 206 209 210 209 208 209 211 213 214 214 214 214 216 216 215 214 213 212 213 215 218
350 352 354 356 357 358 359 360 1 4 5 8 17 72 166 178 182 187 191 195 200 204 206 206 207 207 209 210 211 211 211 211 209 207 209 210 209 209 211 211 211 214 218
351 353 356 358 360 1 2 3 3 4 6 9 14 52 157 172 182 188 192 195 198 202 203 204 206 208 210 211 211 210 209 207 205 203 204 202 202 203 205 207 208 212 215
352 355 357 359 2 3 3 5 7 8 9 12 18 38 158 180 185 189 193 196 198 199 202 206 210 213 215 214 211 209 208 204 202 199 198 198 199 200 201 204 207 210 214
354 357 358 0 3 5 6 7 9 11 13 15 22 36 105 171 185 191 194 196 198 201 205 209 213 215 215 214 211 209 204 200 199 195 193 194 196 198 200 203 206 209 212
355 357 359 1 4 7 8 9 11 13 16 21 29 43 76 126 159 177 186 193 198 202 206 210 214 213 211 210 209 204 198 194 191 188 187 190 194 196 198 201 204 208 212
355 358 360 2 5 8 10 12 14 16 20 28 40 53 76 108 136 159 174 185 193 199 205 208 210 209 210 211 206 198 190 186 183 182 182 187 190 193 194 198 202 207 211
355 358 1 3 6 9 13 16 18 21 26 33 42 55 77 101 125 147 168 179 189 197 200 202 205 206 205 201 194 185 181 177 176 178 180 185 189 192 195 198 203 207 210
354 358 1 4 6 11 14 18 21 24 29 37 46 56 73 92 114 132 151 166 175 178 180 182 187 192 190 185 181 178 174 173 174 176 179 183 187 190 195 198 202 205 209
353 357 2 6 8 12 15 19 23 28 33 41 55 66 74 85 97 115 131 146 153 153 153 157 163 167 171 172 169 167 165 166 170 174 179 181 186 191 195 198 203 207 211
351 356 2 7 11 14 17 21 27 32 39 48 58 70 78 82 88 98 114 125 130 130 132 138 147 154 158 159 157 157 159 164 167 171 177 181 187 192 197 200 205 210 212
349 354 1 7 12 17 21 25 31 37 44 52 60 68 76 82 83 86 102 112 116 119 124 130 137 144 148 152 156 158 161 165 170 174 179 184 189 194 199 203 207 211 213
Height
5722 5716 5711 5706 5701 5696 5692 5688 5684 5681 5679 5677 5676 5676 5677 5679 5682 5685 5690 5695 5700 5706 5712 5717 5723 5728 5734 5740 5745 5751 5757 5763 5768 5773 5778 5783 5787 5791 5794 5797 5799 5801 5802
5710 5704 5698 5692 5687 5681 5675 5670 5665 5661 5658 5656 5655 5655 5656 5658 5662 5665 5670 5675 5681 5688 5694 5701 5708 5714 5720 5726 5733 5739 5746 5752 5758 5763 5769 5774 5779 5783 5787 5790 5792 5794 5795
5699 5692 5685 5678 5671 5664 5657 5650 5644 5639 5635 5632 5631 5631 5632 5635 5639 5643 5648 5654 5661 5668 5676 5683 5691 5697 5705 5712 5719 5726 5734 5740 5747 5753 5759 5765 5770 5775 5779 5782 5785 5787 5789
5687 5680 5672 5663 5655 5646 5638 5629 5622 5615 5611 5608 5606 5605 5607 5610 5614 5619 5625 5632 5639 5647 5656 5664 5672 5680 5688 5696 5704 5712 5720 5728 5735 5742 5749 5755 5761 5766 5770 5774 5777 5780 5782
5675 5667 5657 5648 5638 5628 5618 5608 5599 5592 5586 5583 5581 5581 5582 5585 5590 5596 5602 5609 5617 5626 5635 5644 5653 5662 5670 5679 5688 5697 5706 5714 5722 5730 5738 5745 5751 5757 5762 5766 5770 5773 5775
5663 5654 5643 5633 5622 5610 5598 5587 5577 5569 5563 5559 5558 5558 5559 5563 5568 5574 5580 5587 5596 5605 5614 5624 5633 5643 5652 5662 5672 5681 5690 5699 5709 5718 5726 5734 5741 5748 5753 5758 5762 5766 5769
5651 5641 5630 5618 5606 5593 5580 5568 5557 5548 5542 5538 5536 5536 5537 5542 5547 5553 5560 5568 5577 5586 5595 5604 5613 5623 5634 5644 5655 5665 5675 5684 5694 5705 5714 5722 5730 5738 5744 5749 5753 5758 5761
5640 5628 5616 5604 5591 5577 5564 5551 5540 5531 5524 5520 5517 5516 5518 5522 5528 5535 5542 5551 5561 5569 5578 5586 5595 5605 5616 5627 5638 5650 5660 5670 5681 5691 5702 5711 5718 5726 5733 5739 5745 5749 5754
5629 5617 5604 5591 5577 5563 5550 5537 5526 5517 5510 5504 5501 5501 5502 5506 5512 5519 5527 5537 5547 5556 5564 5572 5580 5590 5600 5612 5624 5636 5647 5656 5667 5678 5688 5697 5707 5715 5723 5730 5736 5741 5746
5619 5607 5593 5579 5566 5552 5539 5527 5516 5506 5499 5494 5491 5490 5491 5495 5501 5508 5516 5525 5535 5544 5553 5561 5569 5577 5586 5596 5608 5620 5632 5643 5654 5665 5676 5685 5695 5704 5713 5721 5728 5733 5738
5610 5597 5584 5570 5557 5543 5530 5518 5508 5499 5492 5486 5484 5483 5484 5487 5492 5499 5507 5517 5525 5534 5542 5550 5558 5566 5575 5585 5595 5607 5618 5630 5641 5652 5664 5674 5684 5694 5704 5712 5719 5725 5730
5603 5590 5577 5563 5550 5537 5525 5513 5503 5494 5488 5483 5480 5479 5480 5483 5488 5494 5502 5510 5519 5527 5535 5543 5550 5558 5566 5575 5585 5595 5606 5617 5629 5641 5653 5663 5674 5685 5694 5703 5710 5717 5722
5597 5584 5571 5558 5545 5533 5521 5510 5501 5492 5486 5482 5479 5478 5479 5482 5486 5491 5499 5507 5515 5523 5530 5538 5545 5552 5559 5568 5576 5585 5595 5607 5618 5630 5642 5653 5664 5674 5684 5693 5701 5708 5714
5592 5580 5568 5555 5543 5531 5520 5510 5501 5493 5487 5483 5480 5480 5481 5484 5487 5492 5498 5505 5512 5519 5527 5533 5540 5547 5554 5561 5569 5577 5587 5597 5609 5620 5632 5643 5653 5664 5674 5685 5693 5701 5707
5589 5577 5565 5553 5542 5530 5520 5511 5503 5495 5489 5485 5483 5482 5483 5486 5489 5493 5498 5505 5511 5518 5524 5530 5536 5543 5549 5556 5564 5571 5580 5589 5599 5610 5622 5633 5645 5656 5666 5676 5685 5693 5700
5587 5575 5564 5553 5542 5531 5521 5513 5505 5499 5493 5489 5486 5485 5486 5488 5491 5495 5499 5505 5510 5515 5521 5527 5533 5539 5545 5552 5558 5565 5573 5582 5592 5602 5614 5625 5637 5649 5659 5669 5677 5686 5693
5585 5574 5563 5553 5542 5532 5523 5515 5508 5502 5497 5492 5490 5488 5489 5491 5493 5496 5500 5504 5509 5514 5519 5524 5530 5536 5541 5547 5553 5560 5567 5576 5585 5596 5607 5619 5630 5642 5652 5662 5670 5679 5686
5583 5574 5563 5553 5543 5534 5525 5517 5510 5505 5500 5496 5493 5492 5492 5493 5495 5498 5501 5504 5508 5513 5517 5522 5527 5532 5537 5542 5548 5554 5562 5569 5579 5589 5601 5612 5624 5635 5646 5655 5665 5673 5680
5583 5573 5564 5554 5545 5536 5528 5520 5514 5508 5503 5499 5496 5495 5494 5495 5497 5499 5501 5505 5508 5512 5516 5520 5524 5528 5533 5538 5543 5549 5556 5564 5574 5584 5596 5607 5619 5629 5640 5650 5659 5666 5673
5582 5574 5565 5556 5547 5538 5530 5523 5517 5511 5507 5503 5500 5498 5497 5498 5499 5501 5503 5505 5508 5511 5515 5518 5521 5525 5529 5533 5538 5544 5551 5560 5569 5580 5592 5604 5615 5625 5635 5645 5653 5661 5668
5582 5574 5566 5557 5549 5541 5533 5526 5520 5515 5510 5506 5504 5502 5501 5501 5501 5503 5504 5506 5508 5510 5513 5516 5518 5522 5525 5529 5534 5540 5548 5557 5567 5579 5590 5601 5612 5622 5631 5640 5648 5656 5662
5582 5575 5567 5559 5551 5544 5536 5530 5524 5518 5514 5510 5507 5505 5504 5504 5504 5505 5505 5507 5508 5509 5511 5513 5516 5519 5521 5525 5531 5538 5547 5557 5568 5579 5589 5600 5610 5620 5629 5637 5645 5652 5658
5582 5576 5568 5561 5553 5547 5540 5533 5527 5522 5517 5514 5511 5509 5508 5507 5507 5507 5507 5507 5508 5509 5511 5512 5515 5517 5520 5525 5532 5539 5548 5558 5569 5580 5589 5600 5610 5619 5627 5635 5642 5648 5654
5583 5577 5570 5563 5556 5550 5543 5537 5531 5526 5521 5518 5515 5513 5512 5511 5510 5509 5509 5510 5510 5511 5512 5514 5516 5519 5523 5528 5535 5542 5551 5561 5572 5582 5591 5601 5610 5618 5626 5633 5639 5645 5650
5583 5577 5572 5566 5559 5553 5547 5541 5535 5531 5526 5523 5520 5518 5516 5515 5514 5513 5513 5513 5513 5514 5515 5518 5520 5524 5529 5534 5541 5549 5558 5568 5577 5586 5595 5603 5610 5618 5624 5631 5636 5641 5646
5583 5578 5573 5568 5562 5557 5551 5546 5541 5536 5532 5529 5526 5524 5522 5521 5520 5519 5518 5518 5519 5520 5522 5525 5529 5533 5538 5543 5550 5557 5565 5574 5582 5590 5597 5604 5611 5617 5623 5628 5633 5638 5643